Location: ?????
(31.8092°N, 35.2590°E)
Time: 15:04:25
(UTC+00:00)

USA 215 - Pass Details

Date: 20 June 2021
Orbit: 1100 x 1107 km, 123.0° (Epoch: 01 August)

Event Time Altitude Azimuth Distance (km) Brightness Sun altitude
Rises 18:43:46 0° 53° (NE) 3,916 6.1 -20.4°
Reaches altitude 10° 18:46:33 10° 63° (ENE) 2,956 5.4 -20.8°
Enters shadow 18:51:00 30° 103° (ESE) 1,850 4.0 -21.5°
